| time (UTC) | temp F | wind direction | speed knots | gust knots | rain 1hr in | rain 24hr in | rain mn in | humidity % | barometer mb |
| 20260507093837 | 58 | 51 | 0.0 | 2.6 | 0.00 | 0.00 | 0.00 | 80 | 1018.4 |
| 20260507093336 | 58 | 51 | 0.9 | 2.6 | 0.00 | 0.00 | 0.00 | 80 | 1018.6 |
| 20260507092829 | 59 | 42 | 0.0 | 2.6 | 0.00 | 0.00 | 0.00 | 80 | 1018.7 |
| 20260507092329 | 59 | 27 | 0.9 | 1.7 | 0.00 | 0.00 | 0.00 | 80 | 1018.7 |
| 20260507091828 | 59 | 355 | 0.0 | 1.7 | 0.00 | 0.00 | 0.00 | 80 | 1018.8 |
| 20260507091326 | 59 | 307 | 0.0 | 0.0 | 0.00 | 0.00 | 0.00 | 80 | 1018.8 |
| 20260507090825 | 59 | 307 | 0.0 | 0.9 | 0.00 | 0.00 | 0.00 | 80 | 1018.9 |
| 20260507090345 | 59 | 307 | 0.0 | 0.9 | 0.00 | 0.00 | 0.00 | 80 | 1019.0 |
| 20260507085837 | 59 | 306 | 0.0 | 0.9 | 0.00 | 0.00 | 0.00 | 80 | 1019.0 |
| 20260507085335 | 60 | 306 | 0.0 | 0.9 | 0.00 | 0.00 | 0.00 | 80 | 1019.0 |
| 20260507084835 | 60 | 306 | 0.0 | 0.0 | 0.00 | 0.00 | 0.00 | 80 | 1019.0 |
| 20260507084334 | 60 | 306 | 0.0 | 0.0 | 0.00 | 0.00 | 0.00 | 80 | 1019.1 |
| 20260507083834 | 60 | 306 | 0.0 | 0.0 | 0.00 | 0.00 | 0.00 | 81 | 1019.1 |
| 20260507083354 | 60 | 306 | 0.0 | 0.0 | 0.00 | 0.00 | 0.00 | 81 | 1019.1 |
| 20260507082828 | 60 | 306 | 0.0 | 0.0 | 0.00 | 0.00 | 0.00 | 81 | 1019.1 |
| 20260507082328 | 60 | 306 | 0.0 | 0.9 | 0.00 | 0.00 | 0.00 | 81 | 1019.2 |
| 20260507081825 | 60 | 306 | 0.0 | 0.9 | 0.00 | 0.00 | 0.00 | 81 | 1019.1 |
| 20260507081324 | 60 | 306 | 0.0 | 0.9 | 0.00 | 0.00 | 0.00 | 81 | 1019.2 |
| 20260507080825 | 60 | 306 | 0.0 | 0.9 | 0.00 | 0.00 | 0.00 | 81 | 1019.2 |
| 20260507080345 | 60 | 306 | 0.0 | 1.7 | 0.00 | 0.00 | 0.00 | 81 | 1019.2 |
| 20260507075838 | 60 | 306 | 0.0 | 1.7 | 0.00 | 0.00 | 0.00 | 81 | 1019.2 |
| 20260507075339 | 61 | 306 | 0.9 | 1.7 | 0.00 | 0.00 | 0.00 | 81 | 1019.2 |
| 20260507074837 | 61 | 306 | 0.0 | 1.7 | 0.00 | 0.00 | 0.00 | 80 | 1019.3 |
| 20260507074334 | 61 | 306 | 0.9 | 2.6 | 0.00 | 0.00 | 0.00 | 81 | 1019.2 |
| 20260507073835 | 61 | 306 | 1.7 | 2.6 | 0.00 | 0.00 | 0.00 | 81 | 1019.3 |
| 20260507073331 | 61 | 306 | 0.9 | 2.6 | 0.00 | 0.00 | 0.00 | 80 | 1019.3 |
| 20260507072847 | 61 | 306 | 1.7 | 3.5 | 0.00 | 0.00 | 0.00 | 81 | 1019.3 |
| 20260507072343 | 61 | 306 | 2.6 | 3.5 | 0.00 | 0.00 | 0.00 | 80 | 1019.3 |
| 20260507071903 | 61 | 317 | 2.6 | 2.6 | 0.00 | 0.00 | 0.00 | 80 | 1019.3 |
| 20260507071341 | 61 | 317 | 1.7 | 2.6 | 0.00 | 0.00 | 0.00 | 80 | 1019.3 |
| 20260507070857 | 61 | 317 | 0.0 | 2.6 | 0.00 | 0.00 | 0.00 | 79 | 1019.3 |
| 20260507070401 | 61 | 334 | 0.0 | 2.6 | 0.00 | 0.00 | 0.00 | 79 | 1019.4 |
| 20260507065836 | 61 | 335 | 0.0 | 3.5 | 0.00 | 0.00 | 0.00 | 79 | 1019.4 |
| 20260507065335 | 61 | 335 | 1.7 | 3.5 | 0.00 | 0.00 | 0.00 | 79 | 1019.4 |
| 20260507064836 | 61 | 307 | 1.7 | 2.6 | 0.00 | 0.00 | 0.00 | 79 | 1019.6 |
| 20260507064334 | 61 | 298 | 0.0 | 1.7 | 0.00 | 0.00 | 0.00 | 79 | 1019.6 |
| 20260507063849 | 61 | 296 | 0.9 | 2.6 | 0.00 | 0.00 | 0.00 | 79 | 1019.6 |
| 20260507063326 | 61 | 298 | 0.9 | 2.6 | 0.00 | 0.00 | 0.00 | 79 | 1019.7 |
| 20260507062826 | 61 | 315 | 0.9 | 4.3 | 0.00 | 0.00 | 0.00 | 78 | 1019.6 |
| 20260507062327 | 61 | 317 | 1.7 | 4.3 | 0.00 | 0.00 | 0.00 | 78 | 1019.6 |
| 20260507061825 | 61 | 306 | 2.6 | 4.3 | 0.00 | 0.00 | 0.00 | 78 | 1019.6 |
| 20260507061340 | 61 | 313 | 2.6 | 5.2 | 0.00 | 0.00 | 0.00 | 77 | 1019.5 |
| 20260507060840 | 62 | 313 | 2.6 | 5.2 | 0.00 | 0.00 | 0.00 | 77 | 1019.6 |
| 20260507060339 | 62 | 281 | 1.7 | 3.5 | 0.00 | 0.00 | 0.00 | 77 | 1019.5 |
| 20260507055856 | 62 | 344 | 1.7 | 5.2 | 0.00 | 0.00 | 0.00 | 76 | 1019.6 |
| 20260507055333 | 62 | 300 | 2.6 | 7.8 | 0.00 | 0.00 | 0.00 | 76 | 1019.5 |
| 20260507054834 | 62 | 317 | 3.5 | 7.0 | 0.00 | 0.00 | 0.00 | 76 | 1019.5 |
| 20260507054330 | 62 | 303 | 3.5 | 6.1 | 0.00 | 0.00 | 0.00 | 76 | 1019.5 |
| 20260507053828 | 62 | 313 | 2.6 | 7.8 | 0.00 | 0.00 | 0.00 | 75 | 1019.4 |
| 20260507053327 | 63 | 306 | 3.5 | 7.8 | 0.00 | 0.00 | 0.00 | 74 | 1019.4 |
| 20260507052847 | 63 | 304 | 5.2 | 7.0 | 0.00 | 0.00 | 0.00 | 74 | 1019.4 |
| 20260507052403 | 63 | 300 | 4.3 | 7.0 | 0.00 | 0.00 | 0.00 | 72 | 1019.4 |
| 20260507051838 | 63 | 290 | 3.5 | 6.1 | 0.00 | 0.00 | 0.00 | 72 | 1019.4 |
| 20260507051338 | 63 | 295 | 3.5 | 5.2 | 0.00 | 0.00 | 0.00 | 71 | 1019.3 |
| 20260507050837 | 63 | 294 | 1.7 | 5.2 | 0.00 | 0.00 | 0.00 | 71 | 1019.4 |
| 20260507050337 | 63 | 304 | 2.6 | 4.3 | 0.00 | 0.00 | 0.00 | 71 | 1019.4 |
| 20260507045833 | 63 | 308 | 2.6 | 5.2 | 0.00 | 0.00 | 0.00 | 70 | 1019.4 |
| 20260507045331 | 64 | 303 | 1.7 | 5.2 | 0.00 | 0.00 | 0.00 | 70 | 1019.4 |
| 20260507044830 | 64 | 311 | 4.3 | 5.2 | 0.00 | 0.00 | 0.00 | 70 | 1019.4 |
| 20260507044325 | 64 | 283 | 3.5 | 6.1 | 0.00 | 0.00 | 0.00 | 70 | 1019.3 |
| 20260507043844 | 64 | 288 | 5.2 | 7.0 | 0.00 | 0.00 | 0.00 | 70 | 1019.4 |
| 20260507043341 | 64 | 303 | 2.6 | 8.7 | 0.00 | 0.00 | 0.00 | 70 | 1019.4 |
| 20260507042842 | 64 | 309 | 6.1 | 8.7 | 0.00 | 0.00 | 0.00 | 70 | 1019.3 |
| 20260507042338 | 64 | 313 | 5.2 | 7.8 | 0.00 | 0.00 | 0.00 | 70 | 1019.3 |
| 20260507041838 | 64 | 304 | 4.3 | 6.1 | 0.00 | 0.00 | 0.00 | 70 | 1019.2 |
| 20260507041333 | 64 | 302 | 4.3 | 7.8 | 0.00 | 0.00 | 0.00 | 70 | 1019.3 |
| 20260507040833 | 64 | 299 | 5.2 | 7.8 | 0.00 | 0.00 | 0.00 | 70 | 1019.1 |
| 20260507040334 | 65 | 314 | 7.0 | 8.7 | 0.00 | 0.00 | 0.00 | 70 | 1019.2 |
| 20260507035829 | 65 | 290 | 5.2 | 8.7 | 0.00 | 0.00 | 0.00 | 69 | 1019.0 |
| 20260507035328 | 65 | 304 | 6.1 | 8.7 | 0.00 | 0.00 | 0.00 | 69 | 1019.0 |
| 20260507034829 | 65 | 309 | 6.1 | 9.6 | 0.00 | 0.00 | 0.00 | 68 | 1018.8 |
| 20260507034344 | 65 | 306 | 7.0 | 9.6 | 0.00 | 0.00 | 0.00 | 68 | 1018.8 |
| 20260507033841 | 65 | 308 | 7.0 | 9.6 | 0.00 | 0.00 | 0.00 | 67 | 1018.8 |
| 20260507033340 | 65 | 308 | 7.0 | 10.4 | 0.00 | 0.00 | 0.00 | 67 | 1018.9 |
| 20260507032840 | 66 | 309 | 6.1 | 10.4 | 0.00 | 0.00 | 0.00 | 67 | 1018.7 |
| 20260507032338 | 66 | 321 | 6.1 | 9.6 | 0.00 | 0.00 | 0.00 | 66 | 1018.6 |
| 20260507031836 | 66 | 311 | 7.0 | 9.6 | 0.00 | 0.00 | 0.00 | 65 | 1018.6 |
| 20260507031329 | 66 | 306 | 7.0 | 8.7 | 0.00 | 0.00 | 0.00 | 64 | 1018.5 |
| 20260507030828 | 66 | 360 | 7.0 | 10.4 | 0.00 | 0.00 | 0.00 | 64 | 1018.5 |
| 20260507030346 | 67 | 313 | 8.7 | 10.4 | 0.00 | 0.00 | 0.00 | 63 | 1018.5 |
| 20260507025843 | 67 | 298 | 6.1 | 10.4 | 0.00 | 0.00 | 0.00 | 63 | 1018.5 |
| 20260507025342 | 67 | 297 | 7.0 | 10.4 | 0.00 | 0.00 | 0.00 | 62 | 1018.4 |
| 20260507024837 | 67 | 303 | 6.1 | 9.6 | 0.00 | 0.00 | 0.00 | 62 | 1018.3 |
| 20260507024338 | 67 | 302 | 7.0 | 9.6 | 0.00 | 0.00 | 0.00 | 62 | 1018.3 |
| 20260507023856 | 67 | 307 | 7.0 | 10.4 | 0.00 | 0.00 | 0.00 | 62 | 1018.2 |
| 20260507023356 | 68 | 303 | 7.0 | 10.4 | 0.00 | 0.00 | 0.00 | 62 | 1018.2 |
| 20260507022835 | 68 | 301 | 7.8 | 10.4 | 0.00 | 0.00 | 0.00 | 62 | 1018.1 |
| 20260507022334 | 68 | 298 | 7.0 | 11.3 | 0.00 | 0.00 | 0.00 | 62 | 1018.0 |
| 20260507021829 | 68 | 312 | 7.8 | 11.3 | 0.00 | 0.00 | 0.00 | 61 | 1018.0 |
| 20260507021327 | 69 | 311 | 7.0 | 10.4 | 0.00 | 0.00 | 0.00 | 61 | 1018.0 |
| 20260507020825 | 69 | 301 | 7.0 | 11.3 | 0.00 | 0.00 | 0.00 | 61 | 1017.9 |
| 20260507020341 | 69 | 299 | 8.7 | 11.3 | 0.00 | 0.00 | 0.00 | 61 | 1017.9 |
| 20260507015836 | 69 | 322 | 7.0 | 11.3 | 0.00 | 0.00 | 0.00 | 61 | 1017.9 |
| 20260507015337 | 69 | 302 | 7.8 | 10.4 | 0.00 | 0.00 | 0.00 | 60 | 1017.8 |
| 20260507014832 | 70 | 271 | 3.5 | 9.6 | 0.00 | 0.00 | 0.00 | 61 | 1017.8 |
| 20260507014331 | 70 | 277 | 7.0 | 9.6 | 0.00 | 0.00 | 0.00 | 61 | 1017.8 |
| 20260507013827 | 70 | 178 | 6.1 | 11.3 | 0.00 | 0.00 | 0.00 | 60 | 1017.9 |
| 20260507013327 | 70 | 221 | 4.3 | 9.6 | 0.00 | 0.00 | 0.00 | 60 | 1017.7 |
| 20260507012845 | 70 | 196 | 6.1 | 14.8 | 0.00 | 0.00 | 0.00 | 60 | 1017.7 |
| 20260507012339 | 70 | 218 | 6.1 | 14.8 | 0.00 | 0.00 | 0.00 | 59 | 1017.7 |
| 20260507011840 | 70 | 246 | 9.6 | 13.9 | 0.00 | 0.00 | 0.00 | 58 | 1017.6 |
| 20260507011336 | 70 | 182 | 8.7 | 12.2 | 0.00 | 0.00 | 0.00 | 58 | 1017.5 |
| 20260507010855 | 70 | 204 | 6.1 | 13.0 | 0.00 | 0.00 | 0.00 | 58 | 1017.4 |
| 20260507010352 | 70 | 223 | 8.7 | 14.8 | 0.00 | 0.00 | 0.00 | 58 | 1017.5 |
| 20260507005829 | 71 | 269 | 7.0 | 14.8 | 0.00 | 0.00 | 0.00 | 58 | 1017.5 |
| 20260507005324 | 71 | 207 | 6.1 | 13.0 | 0.00 | 0.00 | 0.00 | 58 | 1017.5 |
| 20260507004843 | 71 | 250 | 9.6 | 13.0 | 0.00 | 0.00 | 0.00 | 58 | 1017.6 |
| 20260507004343 | 71 | 298 | 7.8 | 13.9 | 0.00 | 0.00 | 0.00 | 58 | 1017.6 |
| 20260507003903 | 71 | 252 | 7.8 | 13.9 | 0.00 | 0.00 | 0.00 | 58 | 1017.4 |
| 20260507003402 | 71 | 205 | 4.3 | 12.2 | 0.00 | 0.00 | 0.00 | 58 | 1017.6 |
| 20260507002834 | 71 | 301 | 7.8 | 12.2 | 0.00 | 0.00 | 0.00 | 57 | 1017.5 |
| 20260507002334 | 72 | 202 | 7.0 | 13.9 | 0.00 | 0.00 | 0.00 | 57 | 1017.4 |
| 20260507001834 | 72 | 234 | 7.8 | 13.9 | 0.00 | 0.00 | 0.00 | 57 | 1017.3 |
| 20260507001331 | 72 | 205 | 8.7 | 13.9 | 0.00 | 0.00 | 0.00 | 56 | 1017.4 |
| 20260507000828 | 72 | 259 | 6.1 | 13.9 | 0.00 | 0.00 | 0.00 | 56 | 1017.4 |
| 20260507000328 | 72 | 180 | 7.8 | 13.9 | 0.00 | 0.00 | 0.00 | 56 | 1017.5 |
| 20260506235840 | 72 | 223 | 6.1 | 16.5 | 0.00 | 0.00 | 0.00 | 56 | 1017.5 |
| 20260506235337 | 72 | 232 | 8.7 | 16.5 | 0.00 | 0.00 | 0.00 | 56 | 1017.4 |
| 20260506234835 | 71 | 246 | 6.1 | 13.0 | 0.00 | 0.00 | 0.00 | 57 | 1017.4 |
| 20260506234333 | 71 | 269 | 7.0 | 13.0 | 0.00 | 0.00 | 0.00 | 56 | 1017.4 |
| 20260506233831 | 71 | 264 | 7.0 | 13.0 | 0.00 | 0.00 | 0.00 | 56 | 1017.4 |
| 20260506233343 | 71 | 275 | 7.8 | 13.0 | 0.00 | 0.00 | 0.00 | 56 | 1017.5 |
| 20260506232841 | 71 | 219 | 5.2 | 13.9 | 0.00 | 0.00 | 0.00 | 57 | 1017.3 |
| 20260506232401 | 71 | 279 | 7.8 | 13.9 | 0.00 | 0.00 | 0.00 | 57 | 1017.6 |
| 20260506231840 | 72 | 291 | 9.6 | 13.9 | 0.00 | 0.00 | 0.00 | 56 | 1017.5 |
| 20260506231358 | 72 | 269 | 6.1 | 13.9 | 0.00 | 0.00 | 0.00 | 56 | 1017.5 |
| 20260506230832 | 71 | 264 | 5.2 | 13.0 | 0.00 | 0.00 | 0.00 | 57 | 1017.5 |
| 20260506230353 | 72 | 261 | 7.8 | 12.2 | 0.00 | 0.00 | 0.00 | 57 | 1017.6 |
| 20260506225828 | 71 | 223 | 7.8 | 16.5 | 0.00 | 0.00 | 0.00 | 58 | 1017.6 |
| 20260506225326 | 71 | 306 | 10.4 | 16.5 | 0.00 | 0.00 | 0.00 | 57 | 1017.7 |
| 20260506224825 | 72 | 267 | 10.4 | 15.6 | 0.00 | 0.00 | 0.00 | 56 | 1017.7 |
| 20260506224342 | 72 | 240 | 4.3 | 13.9 | 0.00 | 0.00 | 0.00 | 56 | 1017.7 |
| 20260506223856 | 71 | 201 | 6.1 | 13.0 | 0.00 | 0.00 | 0.00 | 55 | 1017.9 |
| 20260506223335 | 72 | 299 | 7.0 | 11.3 | 0.00 | 0.00 | 0.00 | 55 | 1017.9 |
| 20260506222854 | 71 | 308 | 7.0 | 15.6 | 0.00 | 0.00 | 0.00 | 55 | 1018.0 |
| 20260506222350 | 71 | 307 | 9.6 | 15.6 | 0.00 | 0.00 | 0.00 | 55 | 1018.0 |
| 20260506221906 | 71 | 306 | 8.7 | 14.8 | 0.00 | 0.00 | 0.00 | 55 | 1018.0 |
| 20260506221341 | 72 | 213 | 6.1 | 17.4 | 0.00 | 0.00 | 0.00 | 54 | 1018.0 |
| 20260506220838 | 72 | 325 | 12.2 | 17.4 | 0.00 | 0.00 | 0.00 | 54 | 1018.2 |
| 20260506220339 | 72 | 247 | 7.0 | 14.8 | 0.00 | 0.00 | 0.00 | 55 | 1018.2 |
| 20260506215831 | 73 | 298 | 9.6 | 13.0 | 0.00 | 0.00 | 0.00 | 54 | 1018.2 |
| 20260506215325 | 73 | 289 | 9.6 | 13.0 | 0.00 | 0.00 | 0.00 | 54 | 1018.4 |
| 20260506214904 | 72 | 234 | 7.0 | 13.0 | 0.00 | 0.00 | 0.00 | 54 | 1018.2 |
| 20260506214341 | 73 | 238 | 7.0 | 12.2 | 0.00 | 0.00 | 0.00 | 53 | 1018.4 |
| 20260506213901 | 73 | 269 | 4.3 | 12.2 | 0.00 | 0.00 | 0.00 | 54 | 1018.4 |
| 20260506213336 | 73 | 262 | 8.7 | 13.0 | 0.00 | 0.00 | 0.00 | 53 | 1018.4 |
| 20260506212832 | 72 | 244 | 8.7 | 13.0 | 0.00 | 0.00 | 0.00 | 54 | 1018.5 |
| 20260506212352 | 72 | 205 | 6.1 | 10.4 | 0.00 | 0.00 | 0.00 | 55 | 1018.6 |
| 20260506211830 | 71 | 254 | 5.2 | 13.0 | 0.00 | 0.00 | 0.00 | 56 | 1018.6 |
| 20260506211348 | 71 | 221 | 9.6 | 13.0 | 0.00 | 0.00 | 0.00 | 56 | 1018.6 |
| 20260506210826 | 71 | 273 | 7.8 | 12.2 | 0.00 | 0.00 | 0.00 | 55 | 1018.9 |
| 20260506210340 | 72 | 272 | 9.6 | 11.3 | 0.00 | 0.00 | 0.00 | 55 | 1018.8 |
| 20260506205856 | 71 | 279 | 5.2 | 9.6 | 0.00 | 0.00 | 0.00 | 56 | 1018.8 |
| 20260506205354 | 71 | 217 | 6.1 | 13.0 | 0.00 | 0.00 | 0.00 | 57 | 1018.9 |
| 20260506204830 | 70 | 273 | 6.1 | 13.0 | 0.00 | 0.00 | 0.00 | 58 | 1019.1 |
| 20260506204328 | 70 | 288 | 7.0 | 12.2 | 0.00 | 0.00 | 0.00 | 57 | 1019.1 |
| 20260506203844 | 71 | 326 | 4.3 | 11.3 | 0.00 | 0.00 | 0.00 | 57 | 1019.0 |
| 20260506203343 | 71 | 266 | 5.2 | 11.3 | 0.00 | 0.00 | 0.00 | 58 | 1019.1 |
| 20260506202839 | 70 | 320 | 3.5 | 14.8 | 0.00 | 0.00 | 0.00 | 58 | 1019.1 |
| 20260506202336 | 71 | 290 | 9.6 | 14.8 | 0.00 | 0.00 | 0.00 | 57 | 1019.2 |
| 20260506201834 | 71 | 225 | 5.2 | 12.2 | 0.00 | 0.00 | 0.00 | 57 | 1019.2 |
| 20260506201333 | 71 | 296 | 3.5 | 12.2 | 0.00 | 0.00 | 0.00 | 57 | 1019.2 |
| 20260506200827 | 72 | 217 | 4.3 | 10.4 | 0.00 | 0.00 | 0.00 | 56 | 1019.3 |
| 20260506200344 | 72 | 312 | 4.3 | 7.8 | 0.00 | 0.00 | 0.00 | 55 | 1019.3 |
| 20260506195849 | 72 | 259 | 4.3 | 7.8 | 0.00 | 0.00 | 0.00 | 55 | 1019.4 |
| 20260506195327 | 72 | 209 | 4.3 | 7.0 | 0.00 | 0.00 | 0.00 | 55 | 1019.6 |
| 20260506194826 | 71 | 207 | 2.6 | 6.1 | 0.00 | 0.00 | 0.00 | 53 | 1019.6 |
| 20260506194340 | 71 | 265 | 2.6 | 9.6 | 0.00 | 0.00 | 0.00 | 54 | 1019.6 |
| 20260506193840 | 70 | 289 | 5.2 | 9.6 | 0.00 | 0.00 | 0.00 | 54 | 1019.6 |
| 20260506193338 | 70 | 309 | 1.7 | 8.7 | 0.00 | 0.00 | 0.00 | 54 | 1019.7 |
| 20260506192839 | 69 | 248 | 2.6 | 9.6 | 0.00 | 0.00 | 0.00 | 55 | 1019.7 |
| 20260506192356 | 69 | 282 | 7.0 | 11.3 | 0.00 | 0.00 | 0.00 | 55 | 1019.9 |
| 20260506191830 | 69 | 303 | 7.0 | 11.3 | 0.00 | 0.00 | 0.00 | 55 | 1019.9 |
| 20260506191329 | 69 | 286 | 5.2 | 12.2 | 0.00 | 0.00 | 0.00 | 56 | 1020.0 |
| 20260506190849 | 69 | 307 | 7.8 | 12.2 | 0.00 | 0.00 | 0.00 | 55 | 1020.1 |
| 20260506190329 | 69 | 309 | 2.6 | 9.6 | 0.00 | 0.00 | 0.00 | 55 | 1020.2 |
| 20260506185827 | 70 | 292 | 2.6 | 7.0 | 0.00 | 0.00 | 0.00 | 55 | 1020.2 |
| 20260506185345 | 69 | 262 | 2.6 | 8.7 | 0.00 | 0.00 | 0.00 | 55 | 1020.3 |
| 20260506184838 | 69 | 322 | 5.2 | 8.7 | 0.00 | 0.00 | 0.00 | 56 | 1020.3 |
| 20260506184337 | 68 | 190 | 2.6 | 11.3 | 0.00 | 0.00 | 0.00 | 56 | 1020.4 |
| 20260506183856 | 68 | 317 | 7.8 | 11.3 | 0.00 | 0.00 | 0.00 | 55 | 1020.5 |
| 20260506183336 | 69 | 311 | 4.3 | 8.7 | 0.00 | 0.00 | 0.00 | 55 | 1020.4 |
| 20260506182835 | 70 | 321 | 5.2 | 7.8 | 0.00 | 0.00 | 0.00 | 53 | 1020.4 |
| 20260506182330 | 70 | 14 | 2.6 | 7.0 | 0.00 | 0.00 | 0.00 | 55 | 1020.5 |
| 20260506181850 | 69 | 188 | 0.9 | 8.7 | 0.00 | 0.00 | 0.00 | 56 | 1020.5 |
| 20260506181326 | 69 | 185 | 4.3 | 8.7 | 0.00 | 0.00 | 0.00 | 56 | 1020.5 |
| 20260506180826 | 69 | 192 | 2.6 | 7.0 | 0.00 | 0.00 | 0.00 | 56 | 1020.5 |
| 20260506180344 | 68 | 99 | 2.6 | 7.0 | 0.00 | 0.00 | 0.00 | 55 | 1020.5 |
| 20260506175842 | 68 | 144 | 0.9 | 7.0 | 0.00 | 0.00 | 0.00 | 57 | 1020.6 |
| 20260506175336 | 68 | 121 | 2.6 | 7.0 | 0.00 | 0.00 | 0.00 | 57 | 1020.6 |
| 20260506174833 | 68 | 236 | 1.7 | 6.1 | 0.00 | 0.00 | 0.00 | 57 | 1020.6 |
| 20260506174332 | 67 | 215 | 2.6 | 7.8 | 0.00 | 0.00 | 0.00 | 58 | 1020.7 |
| 20260506173853 | 67 | 183 | 3.5 | 7.8 | 0.00 | 0.00 | 0.00 | 59 | 1020.6 |
| 20260506173333 | 67 | 270 | 2.6 | 7.8 | 0.00 | 0.00 | 0.00 | 58 | 1020.6 |
| 20260506172831 | 67 | 198 | 5.2 | 7.8 | 0.00 | 0.00 | 0.00 | 57 | 1020.7 |
| 20260506172327 | 68 | 202 | 1.7 | 6.1 | 0.00 | 0.00 | 0.00 | 58 | 1020.6 |
| 20260506171825 | 68 | 215 | 0.9 | 6.1 | 0.00 | 0.00 | 0.00 | 57 | 1020.7 |
| 20260506171324 | 69 | 256 | 0.9 | 5.2 | 0.00 | 0.00 | 0.00 | 58 | 1020.6 |
| 20260506170843 | 68 | 157 | 2.6 | 5.2 | 0.00 | 0.00 | 0.00 | 58 | 1020.7 |
| 20260506170345 | 68 | 53 | 0.0 | 5.2 | 0.00 | 0.00 | 0.00 | 60 | 1020.6 |
| 20260506165840 | 68 | 59 | 2.6 | 5.2 | 0.00 | 0.00 | 0.00 | 60 | 1020.6 |
| 20260506165334 | 67 | 116 | 1.7 | 3.5 | 0.00 | 0.00 | 0.00 | 61 | 1020.6 |
| 20260506164832 | 67 | 136 | 0.9 | 4.3 | 0.00 | 0.00 | 0.00 | 62 | 1020.6 |
| 20260506164333 | 66 | 189 | 0.0 | 4.3 | 0.00 | 0.00 | 0.00 | 63 | 1020.6 |
| 20260506163833 | 66 | 126 | 0.0 | 3.5 | 0.00 | 0.00 | 0.00 | 64 | 1020.6 |
| 20260506163330 | 65 | 124 | 0.9 | 3.5 | 0.00 | 0.00 | 0.00 | 64 | 1020.6 |
| 20260506162829 | 65 | 123 | 1.7 | 3.5 | 0.00 | 0.00 | 0.00 | 64 | 1020.7 |
| 20260506162326 | 65 | 176 | 0.0 | 5.2 | 0.00 | 0.00 | 0.00 | 66 | 1020.7 |
| 20260506161903 | 64 | 213 | 2.6 | 5.2 | 0.00 | 0.00 | 0.00 | 65 | 1020.6 |
| 20260506161340 | 65 | 194 | 0.9 | 4.3 | 0.00 | 0.00 | 0.00 | 66 | 1020.6 |
| 20260506160836 | 64 | 161 | 0.9 | 3.5 | 0.00 | 0.00 | 0.00 | 68 | 1020.6 |
| 20260506160416 | 64 | 84 | 0.0 | 4.3 | 0.00 | 0.00 | 0.00 | 69 | 1020.6 |
| 20260506155832 | 63 | 168 | 0.0 | 5.2 | 0.00 | 0.01 | 0.00 | 69 | 1020.6 |
| 20260506155330 | 63 | 168 | 1.7 | 5.2 | 0.00 | 0.01 | 0.00 | 69 | 1020.6 |
| 20260506154829 | 63 | 173 | 0.9 | 4.3 | 0.00 | 0.01 | 0.00 | 71 | 1020.6 |
| 20260506154348 | 63 | 111 | 0.0 | 2.6 | 0.00 | 0.01 | 0.00 | 72 | 1020.7 |
| 20260506153826 | 62 | 97 | 0.9 | 3.5 | 0.00 | 0.01 | 0.00 | 73 | 1020.7 |
| 20260506153343 | 62 | 78 | 1.7 | 3.5 | 0.00 | 0.01 | 0.00 | 74 | 1020.7 |
| 20260506152842 | 62 | 131 | 0.0 | 6.1 | 0.00 | 0.01 | 0.00 | 75 | 1020.8 |
| 20260506152340 | 61 | 123 | 0.9 | 6.1 | 0.00 | 0.01 | 0.00 | 78 | 1020.8 |
| 20260506151841 | 61 | 84 | 0.9 | 2.6 | 0.00 | 0.01 | 0.00 | 79 | 1020.8 |
| 20260506151337 | 61 | 104 | 0.0 | 2.6 | 0.00 | 0.01 | 0.00 | 81 | 1020.8 |
| 20260506150856 | 60 | 104 | 0.0 | 3.5 | 0.00 | 0.01 | 0.00 | 81 | 1020.7 |
| 20260506150332 | 60 | 98 | 0.9 | 3.5 | 0.00 | 0.01 | 0.00 | 82 | 1020.6 |
| 20260506145828 | 59 | 107 | 0.0 | 1.7 | 0.00 | 0.01 | 0.00 | 83 | 1020.7 |
| 20260506145328 | 59 | 104 | 0.0 | 2.6 | 0.00 | 0.01 | 0.00 | 84 | 1020.8 |
| 20260506144828 | 58 | 104 | 1.7 | 2.6 | 0.00 | 0.01 | 0.00 | 84 | 1020.8 |
| 20260506144349 | 58 | 109 | 0.9 | 2.6 | 0.00 | 0.01 | 0.00 | 85 | 1020.6 |
| 20260506143843 | 57 | 105 | 0.9 | 2.6 | 0.00 | 0.01 | 0.00 | 85 | 1020.7 |
| 20260506143340 | 57 | 105 | 0.0 | 3.5 | 0.00 | 0.01 | 0.00 | 86 | 1020.5 |
| 20260506142838 | 56 | 105 | 0.9 | 3.5 | 0.00 | 0.01 | 0.00 | 86 | 1020.5 |
| 20260506142335 | 56 | 112 | 1.7 | 3.5 | 0.00 | 0.01 | 0.00 | 86 | 1020.3 |
| 20260506141856 | 56 | 90 | 0.9 | 4.3 | 0.00 | 0.01 | 0.00 | 86 | 1020.3 |
| 20260506141331 | 55 | 360 | 1.7 | 4.3 | 0.00 | 0.01 | 0.00 | 87 | 1020.3 |
| 20260506140829 | 55 | 360 | 1.7 | 3.5 | 0.00 | 0.01 | 0.00 | 87 | 1020.3 |
| 20260506140329 | 55 | 360 | 0.9 | 3.5 | 0.00 | 0.01 | 0.00 | 87 | 1020.3 |
| 20260506135905 | 55 | 360 | 2.6 | 3.5 | 0.00 | 0.01 | 0.00 | 87 | 1020.2 |
| 20260506135343 | 55 | 360 | 0.9 | 2.6 | 0.00 | 0.01 | 0.00 | 87 | 1020.3 |
| 20260506134842 | 54 | 360 | 0.9 | 2.6 | 0.00 | 0.01 | 0.00 | 87 | 1020.3 |
| 20260506134336 | 54 | 360 | 1.7 | 2.6 | 0.00 | 0.01 | 0.00 | 87 | 1020.2 |
| 20260506133835 | 54 | 57 | 0.9 | 2.6 | 0.00 | 0.01 | 0.00 | 87 | 1020.2 |
| 20260506133336 | 54 | 55 | 0.9 | 2.6 | 0.00 | 0.01 | 0.00 | 87 | 1020.1 |
| 20260506132833 | 54 | 55 | 1.7 | 2.6 | 0.00 | 0.01 | 0.00 | 87 | 1020.1 |
| 20260506132333 | 54 | 45 | 1.7 | 2.6 | 0.00 | 0.01 | 0.00 | 87 | 1020.1 |
| 20260506131829 | 54 | 51 | 0.9 | 2.6 | 0.00 | 0.01 | 0.00 | 86 | 1020.0 |
| 20260506131325 | 54 | 65 | 1.7 | 2.6 | 0.00 | 0.01 | 0.00 | 86 | 1019.9 |
| 20260506130826 | 54 | 80 | 0.9 | 3.5 | 0.00 | 0.01 | 0.00 | 86 | 1019.8 |
| 20260506130327 | 54 | 78 | 1.7 | 3.5 | 0.00 | 0.01 | 0.00 | 86 | 1019.7 |
| 20260506125902 | 54 | 83 | 0.9 | 3.5 | 0.00 | 0.02 | 0.00 | 86 | 1019.7 |
| 20260506125340 | 54 | 82 | 1.7 | 3.5 | 0.00 | 0.02 | 0.00 | 86 | 1019.7 |
| 20260506124834 | 54 | 80 | 0.0 | 2.6 | 0.00 | 0.02 | 0.00 | 86 | 1019.7 |
| 20260506124334 | 54 | 80 | 0.0 | 2.6 | 0.00 | 0.02 | 0.00 | 86 | 1019.7 |
| 20260506123834 | 54 | 80 | 0.0 | 2.6 | 0.00 | 0.02 | 0.00 | 86 | 1019.6 |
| 20260506123333 | 54 | 80 | 0.9 | 1.7 | 0.00 | 0.02 | 0.00 | 86 | 1019.6 |
| 20260506122833 | 54 | 81 | 0.0 | 2.6 | 0.00 | 0.02 | 0.00 | 86 | 1019.6 |
| 20260506122332 | 54 | 81 | 0.9 | 2.6 | 0.00 | 0.02 | 0.00 | 86 | 1019.5 |
| 20260506121831 | 55 | 82 | 0.9 | 1.7 | 0.00 | 0.02 | 0.00 | 86 | 1019.5 |
| 20260506121328 | 55 | 82 | 0.0 | 2.6 | 0.00 | 0.02 | 0.00 | 85 | 1019.5 |
| 20260506120827 | 55 | 82 | 0.9 | 2.6 | 0.00 | 0.02 | 0.00 | 85 | 1019.5 |
| 20260506120328 | 55 | 82 | 0.9 | 2.6 | 0.00 | 0.02 | 0.00 | 85 | 1019.5 |
| 20260506115825 | 55 | 82 | 0.9 | 2.6 | 0.00 | 0.03 | 0.00 | 85 | 1019.5 |
| 20260506115345 | 55 | 84 | 0.9 | 1.7 | 0.00 | 0.03 | 0.00 | 85 | 1019.5 |
| 20260506114825 | 55 | 83 | 0.0 | 0.9 | 0.00 | 0.03 | 0.00 | 85 | 1019.4 |
| 20260506114359 | 55 | 82 | 0.0 | 0.0 | 0.00 | 0.03 | 0.00 | 85 | 1019.3 |
| 20260506113836 | 55 | 83 | 0.0 | 0.0 | 0.00 | 0.03 | 0.00 | 85 | 1019.4 |
| 20260506113336 | 55 | 83 | 0.0 | 0.0 | 0.00 | 0.03 | 0.00 | 84 | 1019.4 |
| 20260506112835 | 55 | 84 | 0.0 | 0.0 | 0.00 | 0.03 | 0.00 | 84 | 1019.3 |
| 20260506112335 | 56 | 84 | 0.0 | 0.0 | 0.00 | 0.03 | 0.00 | 85 | 1019.3 |
| 20260506111829 | 56 | 84 | 0.0 | 0.0 | 0.00 | 0.03 | 0.00 | 85 | 1019.2 |
| 20260506111346 | 56 | 84 | 0.0 | 0.0 | 0.00 | 0.03 | 0.00 | 84 | 1019.2 |
| 20260506110843 | 56 | 84 | 0.0 | 0.0 | 0.00 | 0.03 | 0.00 | 84 | 1019.2 |
| 20260506110342 | 56 | 84 | 0.0 | 0.0 | 0.00 | 0.03 | 0.00 | 84 | 1019.2 |
| 20260506105858 | 56 | 84 | 0.0 | 0.0 | 0.00 | 0.08 | 0.00 | 84 | 1019.3 |
| 20260506105332 | 56 | 84 | 0.0 | 0.0 | 0.00 | 0.08 | 0.00 | 84 | 1019.2 |
| 20260506104854 | 56 | 84 | 0.0 | 0.0 | 0.00 | 0.08 | 0.00 | 84 | 1019.3 |
| 20260506104334 | 56 | 84 | 0.0 | 0.0 | 0.00 | 0.08 | 0.00 | 84 | 1019.3 |
| 20260506103835 | 56 | 85 | 0.0 | 0.0 | 0.00 | 0.08 | 0.00 | 84 | 1019.4 |
| 20260506103353 | 56 | 85 | 0.0 | 0.0 | 0.00 | 0.08 | 0.00 | 84 | 1019.3 |
| 20260506102824 | 56 | 86 | 0.0 | 0.0 | 0.00 | 0.08 | 0.00 | 84 | 1019.3 |
| 20260506102324 | 56 | 86 | 0.0 | 0.0 | 0.00 | 0.08 | 0.00 | 84 | 1019.3 |
| 20260506101842 | 56 | 86 | 0.0 | 2.6 | 0.00 | 0.08 | 0.00 | 84 | 1019.4 |
| 20260506101341 | 56 | 86 | 0.0 | 2.6 | 0.00 | 0.08 | 0.00 | 84 | 1019.3 |
| 20260506100858 | 56 | 86 | 0.9 | 2.6 | 0.00 | 0.08 | 0.00 | 84 | 1019.4 |
| 20260506100352 | 56 | 89 | 0.9 | 2.6 | 0.00 | 0.08 | 0.00 | 84 | 1019.3 |
| 20260506095827 | 56 | 107 | 0.9 | 2.6 | 0.00 | 0.16 | 0.00 | 84 | 1019.4 |
| 20260506095325 | 56 | 107 | 0.9 | 2.6 | 0.00 | 0.16 | 0.00 | 84 | 1019.4 |
| 20260506094904 | 56 | 111 | 0.9 | 3.5 | 0.00 | 0.16 | 0.00 | 83 | 1019.4 |
| 20260506094401 | 56 | 101 | 0.9 | 2.6 | 0.00 | 0.16 | 0.00 | 83 | 1019.4 |